WAT3679 EGSS-GMTT

Flight info

Callsign WAT3679
Flight time 3h 2m
Altitude 35000
Route NUGBO M183 SILVA Q41 SAM N63 LELNA/N0456F350 DCT NOVAN DCT DELOG N864 SNR/N0461F330 N864 MONTO N857 MOLIN DCT VJF N10 LINTO DCT NOLRO
Aircraft A306/H-SDE1FGHIRWXYZ/HB1

Departure

Time 2026-04-20 07:18
Airport London Stansted Airport (EGSS)

Arrival

Time 2026-04-20 10:21
Airport Tangier Ibn Battuta Airport (GMTT)
Time Latitude Longitude Altitude Speed Heading
2026-04-20 06:52 51.88512 0.24655 361 ft 0 kts 43°
2026-04-20 07:03 51.88503 0.24642 362 ft 3 kts 43°
2026-04-20 07:03 51.88489 0.24621 362 ft 3 kts 43°
2026-04-20 07:03 51.88475 0.24599 362 ft 3 kts 23°
2026-04-20 07:04 51.88456 0.24596 362 ft 3 kts 323°
2026-04-20 07:04 51.88452 0.24601 362 ft 0 kts 317°
2026-04-20 07:12 51.88459 0.24587 362 ft 7 kts 309°
2026-04-20 07:12 51.88492 0.24504 360 ft 9 kts 300°
2026-04-20 07:13 51.88525 0.24409 355 ft 11 kts 297°
2026-04-20 07:13 51.88518 0.24298 358 ft 10 kts 228°
2026-04-20 07:13 51.88458 0.24206 351 ft 17 kts 222°
2026-04-20 07:13 51.88354 0.24043 356 ft 21 kts 221°
2026-04-20 07:14 51.88246 0.23884 352 ft 21 kts 225°
2026-04-20 07:14 51.88136 0.23727 353 ft 21 kts 220°
2026-04-20 07:14 51.88031 0.23566 354 ft 21 kts 224°
2026-04-20 07:14 51.87927 0.23412 348 ft 20 kts 223°
2026-04-20 07:15 51.87820 0.23263 350 ft 20 kts 221°
2026-04-20 07:15 51.87741 0.23118 352 ft 15 kts 243°
2026-04-20 07:15 51.87763 0.22976 354 ft 14 kts 310°
2026-04-20 07:15 51.87756 0.22850 353 ft 12 kts 226°
2026-04-20 07:16 51.87691 0.22766 354 ft 11 kts 210°
2026-04-20 07:16 51.87631 0.22681 348 ft 13 kts 223°
2026-04-20 07:16 51.87564 0.22566 333 ft 16 kts 228°
2026-04-20 07:16 51.87533 0.22408 332 ft 16 kts 304°
2026-04-20 07:17 51.87625 0.22281 328 ft 18 kts 341°
2026-04-20 07:17 51.87727 0.22325 331 ft 6 kts 44°
2026-04-20 07:17 51.87727 0.22327 331 ft 0 kts 44°
2026-04-20 07:17 51.87802 0.22432 334 ft 47 kts 41°
2026-04-20 07:18 51.88228 0.23073 347 ft 118 kts 42°
2026-04-20 07:18 51.88980 0.24172 455 ft 165 kts 44°
2026-04-20 07:18 51.89853 0.25491 1187 ft 177 kts 42°
2026-04-20 07:18 51.90790 0.26883 2103 ft 187 kts 42°
2026-04-20 07:19 51.91752 0.28296 3094 ft 191 kts 41°
2026-04-20 07:19 51.92924 0.29544 3746 ft 214 kts 22°
2026-04-20 07:19 51.94454 0.29849 4491 ft 230 kts 354°
2026-04-20 07:19 51.95921 0.28793 4903 ft 237 kts 322°
2026-04-20 07:20 51.96847 0.26561 5000 ft 246 kts 289°
2026-04-20 07:20 51.97180 0.23832 5008 ft 248 kts 281°
2026-04-20 07:20 51.97438 0.21064 4998 ft 249 kts 281°
2026-04-20 07:20 51.97708 0.18281 5245 ft 251 kts 281°
2026-04-20 07:21 51.97995 0.15471 6170 ft 254 kts 282°
2026-04-20 07:21 51.98291 0.12650 7367 ft 254 kts 282°
2026-04-20 07:21 51.98591 0.09837 8357 ft 253 kts 282°
2026-04-20 07:21 51.98861 0.07010 9020 ft 255 kts 276°
2026-04-20 07:22 51.98748 0.04127 9290 ft 258 kts 263°
2026-04-20 07:22 51.98398 0.01259 9318 ft 260 kts 260°
2026-04-20 07:22 51.98012 -0.01601 9299 ft 260 kts 260°
2026-04-20 07:22 51.97624 -0.04494 9302 ft 268 kts 261°
2026-04-20 07:23 51.97227 -0.07501 9297 ft 274 kts 261°
2026-04-20 07:23 51.96828 -0.10536 9503 ft 278 kts 261°
2026-04-20 07:23 51.96428 -0.13590 10269 ft 282 kts 261°
2026-04-20 07:23 51.96011 -0.16793 11032 ft 296 kts 261°
2026-04-20 07:24 51.95578 -0.20143 11383 ft 318 kts 261°
2026-04-20 07:24 51.95109 -0.23771 11707 ft 340 kts 261°
2026-04-20 07:24 51.94609 -0.27622 12022 ft 358 kts 261°
2026-04-20 07:24 51.94081 -0.31636 12523 ft 369 kts 260°
2026-04-20 07:25 51.93536 -0.35755 13205 ft 375 kts 260°
2026-04-20 07:25 51.92983 -0.39899 13919 ft 378 kts 260°
2026-04-20 07:25 51.92423 -0.44086 14597 ft 382 kts 260°
2026-04-20 07:25 51.91856 -0.48315 15270 ft 385 kts 261°
2026-04-20 07:26 51.91286 -0.52567 15959 ft 387 kts 261°
2026-04-20 07:26 51.90712 -0.56849 16655 ft 390 kts 261°
2026-04-20 07:26 51.90134 -0.61158 17330 ft 393 kts 261°
2026-04-20 07:26 51.89550 -0.65499 17982 ft 396 kts 261°
2026-04-20 07:27 51.88959 -0.69873 18619 ft 399 kts 261°
2026-04-20 07:27 51.88372 -0.74212 19161 ft 401 kts 261°
2026-04-20 07:27 51.87772 -0.78620 19740 ft 401 kts 261°
2026-04-20 07:27 51.87171 -0.83030 20307 ft 402 kts 262°
2026-04-20 07:28 51.86438 -0.87418 20847 ft 406 kts 256°
2026-04-20 07:28 51.85303 -0.91632 21390 ft 414 kts 247°
2026-04-20 07:28 51.83672 -0.95520 21914 ft 423 kts 236°
2026-04-20 07:28 51.81518 -0.98859 22374 ft 435 kts 224°
2026-04-20 07:29 51.78878 -1.01411 22847 ft 449 kts 212°
2026-04-20 07:29 51.75862 -1.03005 23319 ft 462 kts 201°
2026-04-20 07:29 51.72694 -1.04062 23706 ft 469 kts 197°
2026-04-20 07:29 51.69449 -1.04887 24036 ft 474 kts 195°
2026-04-20 07:30 51.66170 -1.05618 24376 ft 477 kts 194°
2026-04-20 07:30 51.62873 -1.06369 24731 ft 476 kts 197°
2026-04-20 07:30 51.59638 -1.07465 25093 ft 474 kts 200°
2026-04-20 07:30 51.57510 -1.08272 25320 ft 474 kts 201°
2026-04-20 07:31 51.54319 -1.09565 25733 ft 471 kts 202°
2026-04-20 07:31 51.50124 -1.11347 26230 ft 471 kts 202°
2026-04-20 07:31 51.46950 -1.12724 26502 ft 473 kts 203°
2026-04-20 07:31 51.43769 -1.14107 26777 ft 475 kts 203°
2026-04-20 07:32 51.41613 -1.15040 26967 ft 476 kts 203°
2026-04-20 07:32 51.37365 -1.16867 27309 ft 478 kts 202°
2026-04-20 07:32 51.35231 -1.17779 27511 ft 478 kts 202°
2026-04-20 07:32 51.32025 -1.19141 27898 ft 475 kts 202°
2026-04-20 07:33 51.28851 -1.20479 28558 ft 468 kts 202°
2026-04-20 07:33 51.25699 -1.21806 28992 ft 466 kts 202°
2026-04-20 07:33 51.22559 -1.23131 29350 ft 466 kts 202°
2026-04-20 07:33 51.19430 -1.24454 29727 ft 465 kts 202°
2026-04-20 07:34 51.16306 -1.25774 30132 ft 464 kts 202°
2026-04-20 07:34 51.13184 -1.27092 30516 ft 462 kts 202°
2026-04-20 07:34 51.10073 -1.28403 30801 ft 463 kts 202°
2026-04-20 07:35 51.03838 -1.31025 31355 ft 464 kts 202°
2026-04-20 07:35 51.00754 -1.32319 31641 ft 464 kts 202°
2026-04-20 07:35 50.97631 -1.33649 31931 ft 463 kts 204°
2026-04-20 07:35 50.94630 -1.35402 32218 ft 455 kts 211°
2026-04-20 07:36 50.91758 -1.37498 32531 ft 454 kts 213°
2026-04-20 07:36 50.88926 -1.39687 32809 ft 453 kts 213°
2026-04-20 07:36 50.86108 -1.41932 33041 ft 453 kts 213°
2026-04-20 07:36 50.83300 -1.44195 33259 ft 453 kts 213°
2026-04-20 07:37 50.77743 -1.48656 33289 ft 442 kts 213°
2026-04-20 07:37 50.72270 -1.53017 33286 ft 440 kts 213°
2026-04-20 07:38 50.66844 -1.57320 33293 ft 440 kts 213°
2026-04-20 07:38 50.61362 -1.61649 33276 ft 440 kts 213°
2026-04-20 07:39 50.55879 -1.65964 33279 ft 440 kts 213°
2026-04-20 07:39 50.50382 -1.70277 33279 ft 440 kts 212°
2026-04-20 07:40 50.44887 -1.74579 33277 ft 440 kts 212°
2026-04-20 07:40 50.39436 -1.78835 33256 ft 441 kts 212°
2026-04-20 07:41 50.33937 -1.83119 33271 ft 441 kts 212°
2026-04-20 07:41 50.28426 -1.87404 33266 ft 443 kts 211°
2026-04-20 07:42 50.22904 -1.91682 33265 ft 443 kts 211°
2026-04-20 07:42 50.17351 -1.95972 33344 ft 448 kts 211°
2026-04-20 07:43 50.14549 -1.98136 33462 ft 451 kts 211°
2026-04-20 07:43 50.11763 -2.00283 33584 ft 454 kts 211°
2026-04-20 07:43 50.08924 -2.02466 33841 ft 455 kts 210°
2026-04-20 07:43 50.06092 -2.04640 34143 ft 455 kts 210°
2026-04-20 07:44 50.03247 -2.06820 34416 ft 455 kts 210°
2026-04-20 07:44 50.00408 -2.08992 34672 ft 455 kts 210°
2026-04-20 07:44 49.97460 -2.10877 34920 ft 459 kts 203°
2026-04-20 07:44 49.94429 -2.12451 35146 ft 460 kts 201°
2026-04-20 07:45 49.88325 -2.15366 35242 ft 454 kts 200°
2026-04-20 07:45 49.82328 -2.18119 35240 ft 451 kts 200°
2026-04-20 07:46 49.76314 -2.20890 35238 ft 451 kts 200°
2026-04-20 07:46 49.70286 -2.23680 35232 ft 451 kts 201°
2026-04-20 07:47 49.64289 -2.26457 35235 ft 449 kts 201°
2026-04-20 07:47 49.58308 -2.29219 35234 ft 448 kts 201°
2026-04-20 07:48 49.52365 -2.31957 35235 ft 448 kts 201°
2026-04-20 07:48 49.46397 -2.34698 35216 ft 447 kts 201°
2026-04-20 07:49 49.40443 -2.37423 35216 ft 445 kts 201°
2026-04-20 07:49 49.34499 -2.40140 35214 ft 445 kts 201°
2026-04-20 07:50 49.28560 -2.42849 35219 ft 445 kts 201°
2026-04-20 07:50 49.22616 -2.45552 35215 ft 445 kts 201°
2026-04-20 07:51 49.16679 -2.48245 35214 ft 445 kts 201°
2026-04-20 07:51 49.10732 -2.50936 35213 ft 445 kts 201°
2026-04-20 07:52 49.04798 -2.53613 35190 ft 445 kts 202°
2026-04-20 07:52 48.98861 -2.56285 35210 ft 444 kts 202°
2026-04-20 07:53 48.92932 -2.58948 35211 ft 444 kts 201°
2026-04-20 07:53 48.87035 -2.61590 35203 ft 444 kts 201°
2026-04-20 07:54 48.81101 -2.64242 35202 ft 444 kts 201°
2026-04-20 07:54 48.75174 -2.66883 35200 ft 443 kts 201°
2026-04-20 07:55 48.69290 -2.69500 35198 ft 443 kts 201°
2026-04-20 07:55 48.63374 -2.72124 35197 ft 443 kts 201°
2026-04-20 07:56 48.57445 -2.74747 35195 ft 444 kts 201°
2026-04-20 07:56 48.51520 -2.77362 35196 ft 444 kts 201°
2026-04-20 07:57 48.45594 -2.79972 35195 ft 444 kts 201°
2026-04-20 07:57 48.39664 -2.82576 35172 ft 444 kts 201°
2026-04-20 07:58 48.33732 -2.85176 35186 ft 444 kts 201°
2026-04-20 07:58 48.27791 -2.87773 35185 ft 444 kts 201°
2026-04-20 07:59 48.21857 -2.90360 35182 ft 444 kts 201°
2026-04-20 07:59 48.15929 -2.92939 35175 ft 443 kts 201°
2026-04-20 08:00 48.10052 -2.95489 35177 ft 442 kts 201°
2026-04-20 08:00 48.04146 -2.98045 35168 ft 441 kts 201°
2026-04-20 08:01 47.98245 -3.00595 35170 ft 441 kts 201°
2026-04-20 08:01 47.92352 -3.03132 35159 ft 439 kts 201°
2026-04-20 08:02 47.86487 -3.05652 35163 ft 438 kts 201°
2026-04-20 08:02 47.80618 -3.08171 35157 ft 438 kts 201°
2026-04-20 08:03 47.74758 -3.10679 35151 ft 438 kts 202°
2026-04-20 08:03 47.68914 -3.13173 35155 ft 436 kts 202°
2026-04-20 08:04 47.63085 -3.15655 35152 ft 436 kts 202°
2026-04-20 08:04 47.57299 -3.18113 35152 ft 436 kts 202°
2026-04-20 08:05 47.51468 -3.20585 35151 ft 435 kts 202°
2026-04-20 08:05 47.45638 -3.23051 35147 ft 435 kts 202°
2026-04-20 08:06 47.39809 -3.25510 35143 ft 435 kts 202°
2026-04-20 08:06 47.33989 -3.27961 35143 ft 435 kts 202°
2026-04-20 08:07 47.28192 -3.30396 35139 ft 435 kts 201°
2026-04-20 08:07 47.22369 -3.32836 35135 ft 435 kts 201°
2026-04-20 08:08 47.16540 -3.35272 35134 ft 435 kts 201°
2026-04-20 08:08 47.10721 -3.37699 35128 ft 435 kts 201°
2026-04-20 08:09 47.04888 -3.40128 35129 ft 435 kts 201°
2026-04-20 08:09 46.99055 -3.42550 35127 ft 435 kts 201°
2026-04-20 08:10 46.93222 -3.44966 35127 ft 435 kts 201°
2026-04-20 08:10 46.87416 -3.47366 35117 ft 436 kts 201°
2026-04-20 08:11 46.81573 -3.49776 35119 ft 436 kts 201°
2026-04-20 08:11 46.75732 -3.52180 35115 ft 436 kts 201°
2026-04-20 08:12 46.69890 -3.54578 35116 ft 436 kts 201°
2026-04-20 08:12 46.64085 -3.56956 35110 ft 436 kts 201°
2026-04-20 08:13 46.58247 -3.59342 35107 ft 436 kts 201°
2026-04-20 08:13 46.52406 -3.61724 35109 ft 436 kts 201°
2026-04-20 08:14 46.46563 -3.64102 35110 ft 436 kts 201°
2026-04-20 08:14 46.40713 -3.66477 35093 ft 436 kts 201°
2026-04-20 08:15 46.34872 -3.68844 35102 ft 436 kts 200°
2026-04-20 08:15 46.28901 -3.70410 35090 ft 442 kts 192°
2026-04-20 08:16 46.22779 -3.71399 35085 ft 443 kts 191°
2026-04-20 08:16 46.16644 -3.72280 35089 ft 443 kts 191°
2026-04-20 08:17 46.10499 -3.73166 35072 ft 443 kts 191°
2026-04-20 08:17 46.04362 -3.74069 35082 ft 443 kts 191°
2026-04-20 08:18 45.98225 -3.74979 35081 ft 443 kts 191°
2026-04-20 08:18 45.92081 -3.75889 35074 ft 443 kts 191°
2026-04-20 08:19 45.85940 -3.76796 35071 ft 444 kts 190°
2026-04-20 08:19 45.79791 -3.77702 35072 ft 444 kts 190°
2026-04-20 08:20 45.73641 -3.78605 35065 ft 444 kts 190°
2026-04-20 08:20 45.67526 -3.79501 35060 ft 444 kts 190°
2026-04-20 08:21 45.62411 -3.80249 35059 ft 444 kts 190°
2026-04-20 08:21 45.56264 -3.81146 35059 ft 444 kts 190°
2026-04-20 08:22 45.50107 -3.82043 35049 ft 444 kts 190°
2026-04-20 08:22 45.43955 -3.82938 35053 ft 445 kts 190°
2026-04-20 08:23 45.37800 -3.83830 35050 ft 445 kts 190°
2026-04-20 08:23 45.31638 -3.84722 35037 ft 445 kts 190°
2026-04-20 08:24 45.25482 -3.85610 35048 ft 445 kts 190°
2026-04-20 08:24 45.19319 -3.86498 35042 ft 445 kts 190°
2026-04-20 08:25 45.13146 -3.87385 35042 ft 445 kts 190°
2026-04-20 08:25 45.07015 -3.88265 35041 ft 445 kts 189°
2026-04-20 08:26 45.00840 -3.89149 35036 ft 445 kts 189°
2026-04-20 08:26 44.94675 -3.90029 35035 ft 445 kts 189°
2026-04-20 08:27 44.88512 -3.90907 35033 ft 445 kts 190°
2026-04-20 08:27 44.82386 -3.91779 35035 ft 445 kts 190°
2026-04-20 08:28 44.76221 -3.92653 35034 ft 445 kts 190°
2026-04-20 08:28 44.70063 -3.93526 35031 ft 445 kts 189°
2026-04-20 08:29 44.63899 -3.94397 35031 ft 445 kts 189°
2026-04-20 08:29 44.57742 -3.95265 35029 ft 445 kts 189°
2026-04-20 08:30 44.51612 -3.96127 35029 ft 445 kts 189°
2026-04-20 08:30 44.45460 -3.96990 35027 ft 445 kts 189°
2026-04-20 08:31 44.39304 -3.97853 35026 ft 445 kts 189°
2026-04-20 08:31 44.33131 -3.98571 35018 ft 448 kts 184°
2026-04-20 08:32 44.26884 -3.98211 35020 ft 449 kts 180°
2026-04-20 08:32 44.20628 -3.97603 35020 ft 450 kts 180°
2026-04-20 08:33 44.11301 -3.96645 35012 ft 449 kts 180°
2026-04-20 08:34 44.05070 -3.96028 35010 ft 448 kts 180°
2026-04-20 08:34 43.98847 -3.95423 35009 ft 448 kts 180°
2026-04-20 08:35 43.92617 -3.94821 35002 ft 448 kts 180°
2026-04-20 08:35 43.86403 -3.94219 35006 ft 447 kts 180°
2026-04-20 08:36 43.80195 -3.93620 35005 ft 447 kts 180°
2026-04-20 08:36 43.73974 -3.93020 35005 ft 447 kts 180°
2026-04-20 08:37 43.67757 -3.92422 35002 ft 447 kts 180°
2026-04-20 08:37 43.61594 -3.91831 35002 ft 447 kts 180°
2026-04-20 08:38 43.55385 -3.91237 34985 ft 447 kts 180°
2026-04-20 08:38 43.49177 -3.90644 34993 ft 447 kts 180°
2026-04-20 08:39 43.42991 -3.90602 34996 ft 443 kts 188°
2026-04-20 08:39 43.36858 -3.91384 34993 ft 442 kts 189°
2026-04-20 08:40 43.30748 -3.92311 34994 ft 442 kts 190°
2026-04-20 08:40 43.24668 -3.93243 34998 ft 442 kts 190°
2026-04-20 08:41 43.18550 -3.94160 34998 ft 442 kts 189°
2026-04-20 08:41 43.12434 -3.95062 35001 ft 442 kts 189°
2026-04-20 08:42 43.06329 -3.95956 35007 ft 441 kts 189°
2026-04-20 08:42 43.00222 -3.96850 35012 ft 441 kts 189°
2026-04-20 08:43 42.94113 -3.97745 35006 ft 441 kts 189°
2026-04-20 08:43 42.88013 -3.98638 35014 ft 441 kts 189°
2026-04-20 08:44 42.81955 -3.99521 35010 ft 441 kts 189°
2026-04-20 08:44 42.75850 -4.00409 35022 ft 441 kts 189°
2026-04-20 08:45 42.69747 -4.01296 35024 ft 441 kts 189°
2026-04-20 08:45 42.63643 -4.02181 35024 ft 441 kts 189°
2026-04-20 08:46 42.57550 -4.03063 35024 ft 441 kts 189°
2026-04-20 08:46 42.51454 -4.03943 35021 ft 440 kts 189°
2026-04-20 08:47 42.45401 -4.04815 35029 ft 440 kts 189°
2026-04-20 08:47 42.39279 -4.05695 35031 ft 440 kts 189°
2026-04-20 08:48 42.33231 -4.06564 35030 ft 439 kts 189°
2026-04-20 08:48 42.27141 -4.07438 35036 ft 439 kts 189°
2026-04-20 08:49 42.21050 -4.08308 35033 ft 439 kts 189°
2026-04-20 08:49 42.14964 -4.09176 35035 ft 440 kts 189°
2026-04-20 08:50 42.08919 -4.10038 35034 ft 440 kts 189°
2026-04-20 08:50 42.02828 -4.10901 35037 ft 440 kts 189°
2026-04-20 08:51 41.96720 -4.11644 35041 ft 441 kts 188°
2026-04-20 08:51 41.90608 -4.12322 35043 ft 440 kts 188°
2026-04-20 08:52 41.84490 -4.13003 35054 ft 441 kts 188°
2026-04-20 08:52 41.78417 -4.13688 35043 ft 440 kts 188°
2026-04-20 08:53 41.72308 -4.14381 35054 ft 440 kts 188°
2026-04-20 08:53 41.66203 -4.15073 35050 ft 440 kts 189°
2026-04-20 08:54 41.60105 -4.15762 35053 ft 439 kts 189°
2026-04-20 08:54 41.54014 -4.16451 35054 ft 439 kts 189°
2026-04-20 08:55 41.47915 -4.17140 35046 ft 439 kts 189°
2026-04-20 08:55 41.41832 -4.17822 35056 ft 438 kts 189°
2026-04-20 08:56 41.35749 -4.18505 35058 ft 438 kts 189°
2026-04-20 08:56 41.29671 -4.19185 35058 ft 438 kts 189°
2026-04-20 08:57 41.23635 -4.19862 35061 ft 438 kts 189°
2026-04-20 08:57 41.17560 -4.20541 35064 ft 438 kts 189°
2026-04-20 08:58 41.11478 -4.21218 35061 ft 438 kts 189°
2026-04-20 08:58 41.05395 -4.21895 35051 ft 438 kts 189°
2026-04-20 08:59 40.99361 -4.22564 35061 ft 438 kts 189°
2026-04-20 08:59 40.93288 -4.23236 35062 ft 438 kts 189°
2026-04-20 09:00 40.87207 -4.23907 35063 ft 438 kts 189°
2026-04-20 09:00 40.81132 -4.24578 35059 ft 438 kts 189°
2026-04-20 09:01 40.75064 -4.25247 35060 ft 437 kts 189°
2026-04-20 09:01 40.68996 -4.25914 35060 ft 437 kts 189°
2026-04-20 09:02 40.62929 -4.26577 35058 ft 438 kts 189°
2026-04-20 09:02 40.56861 -4.27240 35052 ft 438 kts 189°
2026-04-20 09:03 40.50789 -4.27905 35052 ft 438 kts 189°
2026-04-20 09:03 40.44718 -4.28567 35052 ft 438 kts 189°
2026-04-20 09:04 40.38688 -4.29222 35037 ft 437 kts 188°
2026-04-20 09:04 40.32623 -4.29884 35046 ft 436 kts 188°
2026-04-20 09:05 40.26567 -4.30541 35042 ft 436 kts 188°
2026-04-20 09:05 40.20516 -4.31196 35037 ft 436 kts 188°
2026-04-20 09:06 40.14464 -4.31850 35036 ft 436 kts 188°
2026-04-20 09:06 40.08421 -4.32501 35035 ft 435 kts 188°
2026-04-20 09:07 40.02380 -4.33152 35034 ft 435 kts 188°
2026-04-20 09:07 39.96391 -4.33834 35034 ft 434 kts 190°
2026-04-20 09:08 39.90425 -4.34996 35034 ft 432 kts 193°
2026-04-20 09:08 39.84499 -4.36355 35034 ft 432 kts 193°
2026-04-20 09:09 39.78570 -4.37693 35031 ft 432 kts 193°
2026-04-20 09:09 39.72639 -4.38983 35031 ft 432 kts 193°
2026-04-20 09:10 39.66740 -4.40242 35029 ft 432 kts 193°
2026-04-20 09:10 39.60811 -4.41505 35031 ft 432 kts 193°
2026-04-20 09:11 39.55829 -4.42565 35034 ft 432 kts 193°
2026-04-20 09:11 39.49929 -4.43817 35032 ft 432 kts 193°
2026-04-20 09:12 39.43982 -4.45078 35036 ft 433 kts 193°
2026-04-20 09:12 39.38036 -4.46340 35034 ft 433 kts 193°
2026-04-20 09:13 39.32092 -4.47597 35032 ft 432 kts 193°
2026-04-20 09:13 39.26155 -4.48863 35025 ft 432 kts 194°
2026-04-20 09:14 39.20554 -4.51308 35039 ft 425 kts 210°
2026-04-20 09:14 39.15507 -4.55251 35036 ft 424 kts 215°
2026-04-20 09:15 39.10605 -4.59460 35038 ft 423 kts 216°
2026-04-20 09:15 39.05738 -4.63673 35038 ft 421 kts 216°
2026-04-20 09:16 39.00814 -4.67775 35032 ft 423 kts 211°
2026-04-20 09:16 38.95444 -4.70833 35033 ft 426 kts 204°
2026-04-20 09:17 38.89900 -4.73553 35029 ft 427 kts 203°
2026-04-20 09:17 38.84334 -4.76207 35030 ft 427 kts 202°
2026-04-20 09:18 38.78767 -4.78874 35022 ft 426 kts 203°
2026-04-20 09:18 38.73210 -4.81552 35026 ft 427 kts 203°
2026-04-20 09:19 38.67642 -4.84236 35030 ft 427 kts 203°
2026-04-20 09:19 38.62075 -4.86915 35024 ft 427 kts 203°
2026-04-20 09:20 38.56542 -4.89575 35025 ft 427 kts 203°
2026-04-20 09:20 38.50970 -4.92248 35022 ft 428 kts 203°
2026-04-20 09:21 38.45385 -4.94922 35022 ft 428 kts 203°
2026-04-20 09:21 38.39804 -4.97589 35020 ft 428 kts 202°
2026-04-20 09:22 38.34230 -5.00248 35020 ft 428 kts 202°
2026-04-20 09:22 38.28653 -5.02905 35020 ft 428 kts 202°
2026-04-20 09:23 38.23076 -5.05559 35018 ft 428 kts 202°
2026-04-20 09:23 38.17531 -5.08192 35015 ft 428 kts 202°
2026-04-20 09:24 38.11956 -5.10834 35015 ft 428 kts 202°
2026-04-20 09:24 38.06386 -5.13471 35009 ft 427 kts 202°
2026-04-20 09:25 38.00823 -5.16101 35015 ft 426 kts 202°
2026-04-20 09:25 37.95267 -5.18721 35013 ft 426 kts 202°
2026-04-20 09:26 37.89714 -5.21337 35013 ft 426 kts 202°
2026-04-20 09:26 37.84160 -5.23947 35008 ft 425 kts 202°
2026-04-20 09:27 37.78622 -5.26548 35010 ft 423 kts 202°
2026-04-20 09:27 37.73139 -5.29118 35004 ft 422 kts 202°
2026-04-20 09:28 37.67630 -5.31696 35012 ft 422 kts 202°
2026-04-20 09:28 37.62120 -5.34272 34998 ft 423 kts 202°
2026-04-20 09:29 37.56593 -5.36851 34985 ft 423 kts 202°
2026-04-20 09:29 37.51067 -5.39425 34998 ft 423 kts 202°
2026-04-20 09:30 37.45543 -5.41994 34993 ft 422 kts 202°
2026-04-20 09:30 37.40027 -5.44555 34996 ft 422 kts 202°
2026-04-20 09:31 37.34543 -5.47097 34987 ft 422 kts 201°
2026-04-20 09:31 37.29028 -5.49650 34976 ft 422 kts 201°
2026-04-20 09:32 37.23521 -5.52195 34987 ft 422 kts 201°
2026-04-20 09:32 37.18011 -5.54738 34994 ft 421 kts 201°
2026-04-20 09:33 37.12498 -5.57278 34996 ft 422 kts 201°
2026-04-20 09:33 37.07021 -5.59798 34990 ft 422 kts 201°
2026-04-20 09:34 37.01504 -5.62332 34994 ft 422 kts 201°
2026-04-20 09:34 36.93232 -5.66123 34977 ft 422 kts 201°
2026-04-20 09:35 36.87707 -5.68652 34978 ft 422 kts 201°
2026-04-20 09:35 36.82175 -5.71179 34990 ft 425 kts 200°
2026-04-20 09:36 36.76624 -5.73712 34974 ft 427 kts 200°
2026-04-20 09:36 36.71050 -5.76250 34978 ft 426 kts 200°
2026-04-20 09:37 36.65472 -5.78785 34973 ft 427 kts 200°
2026-04-20 09:37 36.59869 -5.81329 34963 ft 432 kts 200°
2026-04-20 09:38 36.54193 -5.83902 34981 ft 435 kts 200°
2026-04-20 09:38 36.48491 -5.86480 34978 ft 436 kts 200°
2026-04-20 09:39 36.42776 -5.89063 34971 ft 436 kts 200°
2026-04-20 09:39 36.39933 -5.90347 34430 ft 434 kts 200°
2026-04-20 09:39 36.37132 -5.91611 33505 ft 435 kts 200°
2026-04-20 09:40 36.34285 -5.92893 32557 ft 435 kts 200°
2026-04-20 09:40 36.31448 -5.94170 31724 ft 433 kts 200°
2026-04-20 09:40 36.28622 -5.95442 30892 ft 431 kts 200°
2026-04-20 09:40 36.25799 -5.96602 30314 ft 424 kts 195°
2026-04-20 09:41 36.22903 -5.97238 29591 ft 421 kts 186°
2026-04-20 09:41 36.20003 -5.97338 28947 ft 415 kts 181°
2026-04-20 09:41 36.17140 -5.97279 28357 ft 408 kts 179°
2026-04-20 09:41 36.14312 -5.97145 27768 ft 404 kts 179°
2026-04-20 09:42 36.11516 -5.96979 27182 ft 402 kts 178°
2026-04-20 09:42 36.08732 -5.96806 26591 ft 398 kts 179°
2026-04-20 09:42 36.05981 -5.96640 26023 ft 394 kts 179°
2026-04-20 09:42 36.03252 -5.96482 25480 ft 392 kts 179°
2026-04-20 09:43 36.00525 -5.96333 24919 ft 391 kts 180°
2026-04-20 09:43 35.97815 -5.96190 24345 ft 389 kts 180°
2026-04-20 09:43 35.95121 -5.96049 23789 ft 386 kts 180°
2026-04-20 09:43 35.92448 -5.95912 23191 ft 383 kts 180°
2026-04-20 09:44 35.89794 -5.95776 22572 ft 380 kts 179°
2026-04-20 09:44 35.87173 -5.95892 21990 ft 374 kts 192°
2026-04-20 09:44 35.84773 -5.96996 21416 ft 367 kts 212°
2026-04-20 09:44 35.82917 -5.99039 20860 ft 362 kts 231°
2026-04-20 09:45 35.81511 -6.01594 20235 ft 360 kts 236°
2026-04-20 09:45 35.79792 -6.03798 19607 ft 358 kts 214°
2026-04-20 09:45 35.77487 -6.04971 19292 ft 366 kts 194°
2026-04-20 09:45 35.74968 -6.05642 19041 ft 373 kts 199°
2026-04-20 09:46 35.72732 -6.07215 18798 ft 370 kts 220°
2026-04-20 09:46 35.71187 -6.09650 18580 ft 356 kts 243°
2026-04-20 09:46 35.70578 -6.12530 18351 ft 344 kts 266°
2026-04-20 09:46 35.70932 -6.15385 18112 ft 336 kts 285°
2026-04-20 09:47 35.71916 -6.17953 17849 ft 328 kts 299°
2026-04-20 09:47 35.73357 -6.20097 17589 ft 323 kts 314°
2026-04-20 09:47 35.75170 -6.21685 17323 ft 319 kts 329°
2026-04-20 09:47 35.77236 -6.22610 17070 ft 315 kts 345°
2026-04-20 09:48 35.79400 -6.22818 16826 ft 311 kts 360°
2026-04-20 09:48 35.81537 -6.22594 16579 ft 305 kts
2026-04-20 09:48 35.83602 -6.22303 16329 ft 299 kts
2026-04-20 09:48 35.85659 -6.22014 16079 ft 294 kts
2026-04-20 09:49 35.87674 -6.21736 15860 ft 293 kts
2026-04-20 09:49 35.89797 -6.21212 15765 ft 331 kts 16°
2026-04-20 09:49 35.91969 -6.19901 15608 ft 366 kts 33°
2026-04-20 09:49 35.93812 -6.17640 15363 ft 378 kts 54°
2026-04-20 09:50 35.94910 -6.14782 15125 ft 362 kts 74°
2026-04-20 09:50 35.95207 -6.11768 14887 ft 347 kts 93°
2026-04-20 09:50 35.94771 -6.08912 14668 ft 332 kts 111°
2026-04-20 09:50 35.93732 -6.06457 14506 ft 316 kts 128°
2026-04-20 09:51 35.92254 -6.04538 14368 ft 302 kts 143°
2026-04-20 09:51 35.90497 -6.03232 14232 ft 289 kts 159°
2026-04-20 09:51 35.88614 -6.02552 14083 ft 276 kts 174°
2026-04-20 09:51 35.86766 -6.02452 13979 ft 263 kts 187°
2026-04-20 09:52 35.84969 -6.02654 13944 ft 250 kts 190°
2026-04-20 09:52 35.83251 -6.02895 13945 ft 247 kts 191°
2026-04-20 09:52 35.81549 -6.03136 13941 ft 246 kts 189°
2026-04-20 09:52 35.79868 -6.03369 13937 ft 246 kts 189°
2026-04-20 09:53 35.78129 -6.03621 13954 ft 266 kts 192°
2026-04-20 09:53 35.76207 -6.04197 13933 ft 302 kts 203°
2026-04-20 09:53 35.74272 -6.05467 13931 ft 330 kts 218°
2026-04-20 09:53 35.72616 -6.07503 13928 ft 337 kts 235°
2026-04-20 09:54 35.71576 -6.09953 13942 ft 313 kts 250°
2026-04-20 09:54 35.71157 -6.12484 13945 ft 294 kts 264°
2026-04-20 09:54 35.71272 -6.14926 13941 ft 279 kts 279°
2026-04-20 09:54 35.71840 -6.17136 13941 ft 265 kts 292°
2026-04-20 09:55 35.72773 -6.19035 13935 ft 254 kts 305°
2026-04-20 09:55 35.73976 -6.20573 13940 ft 248 kts 318°
2026-04-20 09:55 35.75415 -6.21749 13940 ft 250 kts 329°
2026-04-20 09:55 35.77048 -6.22511 13939 ft 253 kts 342°
2026-04-20 09:56 35.78802 -6.22807 13940 ft 257 kts 356°
2026-04-20 09:56 35.80593 -6.22692 13952 ft 258 kts
2026-04-20 09:56 35.82383 -6.22454 13947 ft 258 kts
2026-04-20 09:56 35.83564 -6.22291 13949 ft 259 kts
2026-04-20 09:57 35.85359 -6.22046 13954 ft 259 kts
2026-04-20 09:57 35.87147 -6.21804 13956 ft 258 kts
2026-04-20 09:57 35.89040 -6.21467 13963 ft 295 kts 11°
2026-04-20 09:57 35.91103 -6.20561 13969 ft 334 kts 27°
2026-04-20 09:58 35.93043 -6.18776 13966 ft 363 kts 45°
2026-04-20 09:58 35.94458 -6.16248 13972 ft 349 kts 65°
2026-04-20 09:58 35.95124 -6.13480 13982 ft 327 kts 83°
2026-04-20 09:58 35.95126 -6.10770 13981 ft 306 kts 99°
2026-04-20 09:59 35.94579 -6.08321 13975 ft 287 kts 115°
2026-04-20 09:59 35.93606 -6.06255 13985 ft 270 kts 129°
2026-04-20 09:59 35.92339 -6.04628 13982 ft 258 kts 144°
2026-04-20 09:59 35.90872 -6.03449 13985 ft 254 kts 158°
2026-04-20 10:00 35.89222 -6.02702 13963 ft 251 kts 170°
2026-04-20 10:00 35.87503 -6.02431 13963 ft 248 kts 182°
2026-04-20 10:00 35.85785 -6.02550 13941 ft 247 kts 189°
2026-04-20 10:00 35.84081 -6.02781 13944 ft 246 kts 190°
2026-04-20 10:01 35.82376 -6.03024 13945 ft 246 kts 190°
2026-04-20 10:01 35.80670 -6.03262 13942 ft 247 kts 190°
2026-04-20 10:01 35.78964 -6.03495 13937 ft 247 kts 189°
2026-04-20 10:01 35.77255 -6.03752 13938 ft 247 kts 190°
2026-04-20 10:02 35.75551 -6.04029 13939 ft 247 kts 190°
2026-04-20 10:02 35.73845 -6.04308 13906 ft 247 kts 190°
2026-04-20 10:02 35.72137 -6.04589 13603 ft 248 kts 190°
2026-04-20 10:02 35.70435 -6.04886 13330 ft 245 kts 195°
2026-04-20 10:03 35.68905 -6.05629 13017 ft 238 kts 219°
2026-04-20 10:03 35.67860 -6.07156 12687 ft 234 kts 249°
2026-04-20 10:03 35.67585 -6.09095 12384 ft 232 kts 272°
2026-04-20 10:03 35.67840 -6.11111 11853 ft 244 kts 277°
2026-04-20 10:04 35.68059 -6.13184 11496 ft 245 kts 275°
2026-04-20 10:04 35.68248 -6.15260 11241 ft 241 kts 275°
2026-04-20 10:04 35.68432 -6.17317 10910 ft 242 kts 274°
2026-04-20 10:04 35.68623 -6.19340 10669 ft 234 kts 274°
2026-04-20 10:05 35.68808 -6.21326 10138 ft 237 kts 275°
2026-04-20 10:05 35.68984 -6.23355 9566 ft 239 kts 274°
2026-04-20 10:05 35.69163 -6.25349 9204 ft 230 kts 275°
2026-04-20 10:05 35.69330 -6.27321 8623 ft 233 kts 275°
2026-04-20 10:06 35.69817 -6.29168 8140 ft 234 kts 306°
2026-04-20 10:06 35.71162 -6.30273 7960 ft 240 kts 341°
2026-04-20 10:06 35.72841 -6.30391 7944 ft 246 kts
2026-04-20 10:06 35.74432 -6.29599 7938 ft 251 kts 32°
2026-04-20 10:07 35.75628 -6.28033 7937 ft 255 kts 60°
2026-04-20 10:07 35.76015 -6.25929 7874 ft 254 kts 95°
2026-04-20 10:07 35.75542 -6.23855 7414 ft 252 kts 115°
2026-04-20 10:07 35.74790 -6.21914 6932 ft 250 kts 117°
2026-04-20 10:08 35.74086 -6.19961 6459 ft 249 kts 107°
2026-04-20 10:08 35.73834 -6.17858 5947 ft 248 kts 92°
2026-04-20 10:08 35.73795 -6.15755 5530 ft 243 kts 90°
2026-04-20 10:08 35.73786 -6.13688 5137 ft 239 kts 90°
2026-04-20 10:09 35.73777 -6.11643 4962 ft 239 kts 91°
2026-04-20 10:09 35.73762 -6.09615 4934 ft 240 kts 92°
2026-04-20 10:09 35.73678 -6.07559 4930 ft 241 kts 95°
2026-04-20 10:09 35.73546 -6.05507 4938 ft 240 kts 96°
2026-04-20 10:10 35.73404 -6.03462 4934 ft 240 kts 97°
2026-04-20 10:10 35.73259 -6.01407 4908 ft 241 kts 96°
2026-04-20 10:10 35.73113 -5.99342 4629 ft 242 kts 96°
2026-04-20 10:10 35.72967 -5.97292 4391 ft 238 kts 97°
2026-04-20 10:11 35.72824 -5.95272 4121 ft 236 kts 97°
2026-04-20 10:11 35.72683 -5.93264 4002 ft 235 kts 97°
2026-04-20 10:11 35.72541 -5.91256 3998 ft 236 kts 97°
2026-04-20 10:11 35.72396 -5.89249 4000 ft 235 kts 97°
2026-04-20 10:12 35.72004 -5.87317 3999 ft 232 kts 116°
2026-04-20 10:12 35.71301 -5.85529 4006 ft 232 kts 119°
2026-04-20 10:12 35.70560 -5.83767 3999 ft 232 kts 120°
2026-04-20 10:12 35.69817 -5.82017 3999 ft 226 kts 120°
2026-04-20 10:13 35.69109 -5.80356 4032 ft 215 kts 120°
2026-04-20 10:13 35.68433 -5.78722 4006 ft 215 kts 116°
2026-04-20 10:13 35.67906 -5.77012 4000 ft 217 kts 110°
2026-04-20 10:13 35.67537 -5.75200 4005 ft 220 kts 101°
2026-04-20 10:14 35.67309 -5.73334 4009 ft 220 kts 100°
2026-04-20 10:14 35.67105 -5.71466 4004 ft 220 kts 99°
2026-04-20 10:14 35.66945 -5.69592 4008 ft 220 kts 94°
2026-04-20 10:14 35.67016 -5.67713 4006 ft 221 kts 82°
2026-04-20 10:15 35.67599 -5.65964 4005 ft 225 kts 56°
2026-04-20 10:15 35.68831 -5.64799 4008 ft 227 kts 19°
2026-04-20 10:15 35.70352 -5.64818 3988 ft 221 kts 338°
2026-04-20 10:15 35.71448 -5.65952 3830 ft 200 kts 295°
2026-04-20 10:16 35.71587 -5.67564 3625 ft 190 kts 258°
2026-04-20 10:16 35.71377 -5.69177 3395 ft 191 kts 261°
2026-04-20 10:16 35.71289 -5.70821 3137 ft 194 kts 268°
2026-04-20 10:16 35.71360 -5.72454 2917 ft 186 kts 274°
2026-04-20 10:17 35.71498 -5.73924 3006 ft 170 kts 273°
2026-04-20 10:17 35.71612 -5.75369 2644 ft 170 kts 274°
2026-04-20 10:17 35.71742 -5.76820 2261 ft 172 kts 272°
2026-04-20 10:17 35.71880 -5.78311 1992 ft 179 kts 274°
2026-04-20 10:18 35.72018 -5.79801 1753 ft 170 kts 274°
2026-04-20 10:18 35.72145 -5.81177 1555 ft 155 kts 272°
2026-04-20 10:18 35.72250 -5.82522 1454 ft 160 kts 273°
2026-04-20 10:18 35.72366 -5.83875 1223 ft 158 kts 276°
2026-04-20 10:19 35.72506 -5.85211 952 ft 158 kts 277°
2026-04-20 10:19 35.72620 -5.86552 708 ft 159 kts 276°
2026-04-20 10:19 35.72747 -5.87926 516 ft 161 kts 277°
2026-04-20 10:19 35.72887 -5.89248 308 ft 154 kts 277°
2026-04-20 10:20 35.73014 -5.90534 99 ft 144 kts 277°
2026-04-20 10:20 35.73124 -5.91655 61 ft 116 kts 279°
2026-04-20 10:20 35.73202 -5.92434 63 ft 68 kts 276°
2026-04-20 10:20 35.73242 -5.92885 66 ft 51 kts 278°
2026-04-20 10:21 35.73271 -5.93276 60 ft 18 kts 258°
2026-04-20 10:21 35.73245 -5.93305 61 ft 3 kts 203°
2026-04-20 10:21 35.73225 -5.93314 61 ft 3 kts 199°
2026-04-20 10:21 35.73179 -5.93327 62 ft 14 kts 188°
2026-04-20 10:22 35.73112 -5.93278 60 ft 11 kts 127°
2026-04-20 10:22 35.73086 -5.93179 58 ft 17 kts 98°
2026-04-20 10:22 35.73067 -5.92984 63 ft 27 kts 95°
2026-04-20 10:22 35.73045 -5.92761 64 ft 26 kts 97°
2026-04-20 10:23 35.73024 -5.92543 62 ft 25 kts 96°
2026-04-20 10:23 35.73003 -5.92328 59 ft 25 kts 98°
2026-04-20 10:23 35.72986 -5.92118 57 ft 24 kts 95°
2026-04-20 10:23 35.72961 -5.91914 60 ft 24 kts 96°
2026-04-20 10:24 35.72929 -5.91752 58 ft 16 kts 134°
2026-04-20 10:24 35.72828 -5.91713 66 ft 16 kts 176°
2026-04-20 10:24 35.72721 -5.91701 66 ft 14 kts 168°
2026-04-20 10:24 35.72622 -5.91695 66 ft 14 kts 179°
2026-04-20 10:25 35.72522 -5.91683 66 ft 15 kts 169°
2026-04-20 10:25 35.72440 -5.91615 63 ft 14 kts 120°
2026-04-20 10:25 35.72470 -5.91556 57 ft 6 kts 12°
2026-04-20 10:25 35.72512 -5.91559 64 ft 5 kts 354°
2026-04-20 10:26 35.72525 -5.91559 61 ft 0 kts 354°